Location: N�rnberg
(49.4471°N, 11.0632°E)
Time: 20:55:28
(UTC+02:00)

VELOX 1 - Pass Details

Date: 26 April 2026
Orbit: 569 x 580 km, 98.3° (Epoch: 13 May)

Event Time Altitude Azimuth Distance (km) Brightness Sun altitude
Rises 23:36:49 0° 28° (NNE) 2,785 ? -23.3°
Reaches altitude 10° 23:39:31 10° 47° (NE) 1,882 ? -23.5°
Enters shadow 23:40:58 16° 66° (ENE) 1,543 ? -23.6°
